sat.trackr.live / text

‹ back to catalog

STARLINK-4515

NORAD 53397 · 2022-097K

PAYLOAD ACTIVE UNKNOWN

§ Identity

Operator
Country
US
Launch date
2022-08-10
Launch site
AFETR
Launch vehicle
Mass (kg)
RCS (m²)

Purposes: comms

External: N2YO · Heavens-Above · Gunter

§ Orbital elements

Epoch: 2026-05-25T03:19:44.393664Z

Period
95.44 min
Inclination
53.2142°
Eccentricity
0.0001128
Mean motion
15.08837489 rev/d
Perigee alt
539.0 km
Apogee alt
540.5 km
Semi-major
6,917.9 km
B*
2.8435e-6
RAAN
140.9250°
Arg perigee
94.6784°
Mean anomaly
265.4337°
Rev number
21,005

§ Raw data

STARLINK-45151 53397U 22097K   26145.13870826 -.00000243  00000+0  28435-5 0  99962 53397  53.2142 140.9250 0001128  94.6784 265.4337 15.08837489210058

JSON: /api/v1/satellites/53397 · /tle

For live sub-satellite position, see the globe view (requires WebGL).

§ Visibility from observer

Set your observer location to see the next 7 days of passes ≥ 10°. The values pass through the URL so the page stays shareable.

No JS? Fill the form by hand. The geolocation button needs JavaScript.